רגע לפני שאתם עוזבים...
יש לנו ב
הצעה מיוחד עבורכם!
מספר שירותים שכדאי שתכירו
| לוחית | שעת חיפוש | ||||
| 67605501 | הונדה יפן | HR-V | 2019 | 03/09/2026 | 13:55:40 |
| 8343939 | יונדאי טורקיה | I10 | 2016 | 03/09/2026 | 13:55:38 |
| 4187585 | קיה סלובקיה | SPORTAGE | 2017 | 03/09/2026 | 13:55:36 |
| 2832474 | טויוטה יפן | RAV-4 | 2011 | 03/09/2026 | 13:55:35 |
| 65084001 | פיג'ו צרפת | 3008 | 2019 | 03/09/2026 | 13:55:34 |
| 4642635 | טויוטה בריטניה | AVENSIS | 2002 | 03/09/2026 | 13:55:32 |
| 72140801 | שברולט קוריאה הדרומית | SPARK | 2020 | 03/09/2026 | 13:55:31 |
| 58318202 | ימהה צרפת | - | 2021 | 03/09/2026 | 13:55:28 |
| 7823130 | פולריס | - | 2014 | 03/09/2026 | 13:55:28 |
| 1588878 | פיאט פולין | FIAT 500 ABARTH | 2011 | 03/09/2026 | 13:55:27 |
| 1404968 | סוזוקי יפן | GRAND VITARA | 2009 | 03/09/2026 | 13:55:25 |
| 42464002 | ניסאן בריטניה | QASHQAI | 2021 | 03/09/2026 | 13:55:24 |
| 55794103 | טויוטה צ'כיה | AYGO X | 2023 | 03/09/2026 | 13:55:23 |
| 1697928 | בומברדיה קנדה | - | 2019 | 03/09/2026 | 13:55:20 |
| 66560101 | פולקסווגן גרמניה | GOLF GTI | 2019 | 03/09/2026 | 13:55:20 |
| 67309404 | מרצדס ארהב" | GLS600 MAYBACH | 2026 | 03/09/2026 | 13:55:20 |
| 7469709 | טויוטה צרפת | YARIS HYBRID | 2017 | 03/09/2026 | 13:55:18 |
| 8523331 | רנו צרפת | - | 2014 | 03/09/2026 | 13:55:17 |
| 67341903 | טויוטה תאילנד | HILUX | 2024 | 03/09/2026 | 13:55:11 |
| 49335703 | אאודי ספרד | A1 SPORTBACK | 2023 | 03/09/2026 | 13:55:10 |
| 1096052 | טויוטה בריטניה | AVENSIS | 2013 | 03/09/2026 | 13:55:09 |
| 55736702 | מיצובישי תאילנד | SPACE STAR | 2021 | 03/09/2026 | 13:55:08 |
| 5960126 | יונדאי קוריאה הדרומית | STARIA PREMIUM | 2023 | 03/09/2026 | 13:55:07 |
| 5676531 | וולבו שבדיה | - | 2015 | 03/09/2026 | 13:55:04 |
| 15415704 | טויוטה יפן | COROLLA CROSS | 2024 | 03/09/2026 | 13:55:02 |
| 27358504 | יגואר בריטניה | F PACE | 2025 | 03/09/2026 | 13:55:00 |
| 8166208 | ב מ וו גרמניה | - | 1994 | 03/09/2026 | 13:54:57 |
| 1677231 | מיצובישי יפן | OUTLANDER | 2014 | 03/09/2026 | 13:54:56 |
| 6847854 | מזדה יפן | MAZDA 2 | 2015 | 03/09/2026 | 13:54:50 |
| 25824604 | טסלה ארה''ב | - | 2025 | 03/09/2026 | 13:54:46 |
| 6573539 | יונדאי טורקיה | I10 | 2016 | 03/09/2026 | 13:54:45 |
| 25758804 | לנדרובר בריטניה | SPORT | 2025 | 03/09/2026 | 13:54:44 |
| 3280963 | סובארו יפן | IMPREZA B3 | 2008 | 03/09/2026 | 13:54:37 |
| 38075403 | גילי סין | GEOMETRY C | 2023 | 03/09/2026 | 13:54:33 |
| 83800002 | אאודי גרמניה | RS3 SPORTBACK | 2022 | 03/09/2026 | 13:54:33 |
| 8370681 | טויוטה טורקיה | COROLLA | 2016 | 03/09/2026 | 13:54:32 |
| 83800002 | אאודי גרמניה | RS3 SPORTBACK | 2022 | 03/09/2026 | 13:54:32 |
| 83800002 | אאודי גרמניה | RS3 SPORTBACK | 2022 | 03/09/2026 | 13:54:31 |
| 72140801 | שברולט קוריאה הדרומית | SPARK | 2020 | 03/09/2026 | 13:54:30 |
| 1607862 | טויוטה יפן | LAND CRUISER | 2007 | 03/09/2026 | 13:54:29 |
| 5777616 | ב מ וו גרמניה | 530I | 2006 | 03/09/2026 | 13:54:28 |
| 1405465 | סאן יאנג טיואן | - | 2008 | 03/09/2026 | 13:54:26 |
| 31680201 | קואנג יאנג טיו | - | 2017 | 03/09/2026 | 13:54:25 |
| 68092002 | סיטרואן ספרד | BERLINGO | 2021 | 03/09/2026 | 13:54:24 |
| 1355466 | שברולט קוריאה הדרומית | OPTRA | 2009 | 03/09/2026 | 13:54:22 |
| 53962202 | יונדאי טורקיה | I10 | 2021 | 03/09/2026 | 13:54:22 |
| 23759303 | סיאט ספרד | ARONA | 2023 | 03/09/2026 | 13:54:21 |
| 6611854 | פורד גרמניה | FIESTA | 2015 | 03/09/2026 | 13:54:17 |
| 4881876 | יונדאי טורקיה | ACCENT | 2011 | 03/09/2026 | 13:54:10 |
| 4404279 | איסוזו יפן | - | 2013 | 03/09/2026 | 13:54:08 |
| 63140001 | אאודי סלובקיה | Q8 | 2019 | 03/09/2026 | 13:54:08 |
| 90296901 | פורד ארהב" | - | 2017 | 03/09/2026 | 13:54:07 |
| 5960126 | יונדאי קוריאה הדרומית | STARIA PREMIUM | 2023 | 03/09/2026 | 13:54:05 |
| 44538601 | טויוטה טורקיה | COROLLA | 2018 | 03/09/2026 | 13:53:58 |
| 13800304 | גילי סין | GEOMETRY C | 2024 | 03/09/2026 | 13:53:52 |
| 4881876 | יונדאי טורקיה | ACCENT | 2011 | 03/09/2026 | 13:53:51 |
| 75890402 | סיאט ספרד | LEON | 2022 | 03/09/2026 | 13:53:50 |
| 4370066 | מיצובישי יפן | GRANDIS | 2009 | 03/09/2026 | 13:53:39 |
| 2027475 | סובארו יפן | FORESTER | 2013 | 03/09/2026 | 13:53:35 |
| 74386601 | סיאט ספרד | IBIZA | 2019 | 03/09/2026 | 13:53:29 |
| 74386601 | סיאט ספרד | IBIZA | 2019 | 03/09/2026 | 13:53:29 |
| 1265523 | סובארו יפן | אימפרזה סטיישן 6.1 י | 1997 | 03/09/2026 | 13:53:22 |
| 4404279 | איסוזו יפן | - | 2013 | 03/09/2026 | 13:53:20 |
| 42984603 | טסלה גרמניה | MODEL Y | 2023 | 03/09/2026 | 13:53:19 |
| 3332633 | רנו טורקיה | FLUENCE | 2016 | 03/09/2026 | 13:53:19 |
| 3785331 | יונדאי טורקיה | I10 | 2014 | 03/09/2026 | 13:53:14 |
| 45841501 | טויוטה טורקיה | C-HR HYBRID | 2018 | 03/09/2026 | 13:53:12 |
| 5625171 | מזדה יפן | MAZDA 6 | 2011 | 03/09/2026 | 13:53:08 |
| 8935632 | שברולט קוריאה הדרומית | CRUZE | 2015 | 03/09/2026 | 13:53:00 |
| 15872703 | מיצובישי יפן | ECLIPSE CROSS | 2023 | 03/09/2026 | 13:52:57 |
| 63140001 | אאודי סלובקיה | Q8 | 2019 | 03/09/2026 | 13:52:56 |
| 9704838 | קיה קוריאה הדרומית | PICANTO | 2016 | 03/09/2026 | 13:52:51 |
| 1062852 | טויוטה צרפת | YARIS | 2013 | 03/09/2026 | 13:52:50 |
| 38029904 | הונדה יפן | JAZZ HYBRID | 2025 | 03/09/2026 | 13:52:44 |
| 75890402 | סיאט ספרד | LEON | 2022 | 03/09/2026 | 13:52:41 |
| 5494186 | לקסוס יפן | LEXUS RX450H | 2017 | 03/09/2026 | 13:52:40 |
| 85184402 | מזדה יפן | MAZDA 3 | 2022 | 03/09/2026 | 13:52:35 |
| 74386601 | סיאט ספרד | IBIZA | 2019 | 03/09/2026 | 13:52:27 |
| 7549754 | ב מ וו אוסטריה | MINI CS PACEMAN | 2015 | 03/09/2026 | 13:52:23 |
| 3984856 | פולקסווגן גרמניה | GOLF | 2004 | 03/09/2026 | 13:52:22 |
| 7563016 | אאודי גרמניה | A4 | 2006 | 03/09/2026 | 13:52:20 |
| 4404279 | איסוזו יפן | - | 2013 | 03/09/2026 | 13:52:19 |
| 3719274 | טויוטה יפן | COROLLA | 2010 | 03/09/2026 | 13:52:18 |
| 60912304 | קיה סלובקיה | SPORTAGE | 2026 | 03/09/2026 | 13:52:16 |
| 30457403 | וולבו צרפת | - | 2023 | 03/09/2026 | 13:52:11 |
| 83148301 | ניסאן בריטניה | QASHQAI | 2019 | 03/09/2026 | 13:52:10 |
| 85566403 | פורד גרמניה | FOCUS | 2024 | 03/09/2026 | 13:52:09 |
| 9515774 | טויוטה יפן | - | 2002 | 03/09/2026 | 13:52:08 |
| 3355811 | מיצובישי יפן | OUTLANDER | 2013 | 03/09/2026 | 13:52:06 |
| 7813418 | פולקסווגן גרמניה | GOLF | 1999 | 03/09/2026 | 13:51:55 |
| 30457403 | וולבו צרפת | - | 2023 | 03/09/2026 | 13:51:50 |
| 1309560 | טויוטה דרום אפריקה | HILUX VIGO | 2006 | 03/09/2026 | 13:51:49 |
| 7066670 | הונדה בריטניה | CIVIC | 2010 | 03/09/2026 | 13:51:47 |
| 18384103 | ג'יפ איטליה | COMPASS PHEV | 2022 | 03/09/2026 | 13:51:37 |
| 6598772 | מרצדס ספרד | VIANO 30CDI | 2010 | 03/09/2026 | 13:51:33 |
| 6490015 | מרכז הגרורים | - | 2000 | 03/09/2026 | 13:51:32 |
| 41118502 | קיה סלובקיה | SPORTAGE | 2021 | 03/09/2026 | 13:51:31 |
| 31221503 | מזדה יפן | MAZDA3 | 2022 | 03/09/2026 | 13:51:24 |
| 24115402 | קרייזלר מכסיקו | - | 2020 | 03/09/2026 | 13:51:24 |
| 71454601 | יגואר בריטניה | F-PACE | 2020 | 03/09/2026 | 13:51:20 |
| 7066670 | הונדה בריטניה | CIVIC | 2010 | 03/09/2026 | 13:51:19 |
| 7066670 | הונדה בריטניה | CIVIC | 2010 | 03/09/2026 | 13:51:18 |
| 1052862 | טויוטה יפן | PRIUS HYBRID | 2007 | 03/09/2026 | 13:51:17 |
| 55798901 | יונדאי קוריאה הדרומית | ELANTRA | 2019 | 03/09/2026 | 13:51:13 |
| 85566403 | פורד גרמניה | FOCUS | 2024 | 03/09/2026 | 13:51:06 |
| 83148301 | ניסאן בריטניה | QASHQAI | 2019 | 03/09/2026 | 13:51:05 |
| 4225418 | אופל ספרד | קורסה GNIWS,4.1, 5 ד | 1997 | 03/09/2026 | 13:51:05 |
| 7736854 | מזדה יפן | MAZDA 3 | 2015 | 03/09/2026 | 13:51:01 |
| 55603902 | יונדאי קוריאה הדרומית | SONATA HYBRID | 2021 | 03/09/2026 | 13:50:59 |
| 87610201 | מרצדס גרמניה | A180 | 2021 | 03/09/2026 | 13:50:53 |
| 1171263 | הונדה יפן | CIVIC | 2007 | 03/09/2026 | 13:50:51 |
| 7066670 | הונדה בריטניה | CIVIC | 2010 | 03/09/2026 | 13:50:46 |
| 2010911 | יונדאי צ'כיה | I30 | 2013 | 03/09/2026 | 13:50:40 |
| 2007076 | ב מ וו גרמניה | 328I | 2013 | 03/09/2026 | 13:50:38 |
| 3727139 | איסוזו תאילנד | PICK - UP | 2016 | 03/09/2026 | 13:50:37 |
| 5816316 | ב מ וו גרמניה | 320I | 2006 | 03/09/2026 | 13:50:37 |
| 72727302 | הונדה ויאטנם | - | 2022 | 03/09/2026 | 13:50:27 |
| 8823712 | שברולט קוריאה הדרומית | CRUZE 1.6 LT | 2013 | 03/09/2026 | 13:50:25 |
| 70823103 | פיג'ו מרוקו | 208 | 2024 | 03/09/2026 | 13:50:19 |
| 71454601 | יגואר בריטניה | F-PACE | 2020 | 03/09/2026 | 13:50:18 |
| 75455001 | סוזוקי יפן | IGNIS | 2019 | 03/09/2026 | 13:50:18 |
| 64733203 | קיה קוריאה הדרומית | NIRO PLUS PHEV | 2024 | 03/09/2026 | 13:50:16 |
| 70823103 | פיג'ו מרוקו | 208 | 2024 | 03/09/2026 | 13:50:13 |
| 1081314 | רנו צרפת | KANGOO | 2006 | 03/09/2026 | 13:50:12 |
| 86140602 | קיה קוריאה הדרומית | PICANTO | 2022 | 03/09/2026 | 13:50:11 |
| 8718554 | מזדה יפן | MAZDA 3 | 2015 | 03/09/2026 | 13:50:06 |
| 7066670 | הונדה בריטניה | CIVIC | 2010 | 03/09/2026 | 13:50:06 |
| 83148301 | ניסאן בריטניה | QASHQAI | 2019 | 03/09/2026 | 13:50:01 |
| 9515774 | טויוטה יפן | - | 2002 | 03/09/2026 | 13:50:01 |
| 7418234 | פיאט איטליה | - | 2016 | 03/09/2026 | 13:49:59 |
| 1304672 | דייהטסו יפן | TERIOS | 2010 | 03/09/2026 | 13:49:55 |
| 2597784 | רנו צרפת | - | 2017 | 03/09/2026 | 13:49:50 |
| 7900957 | פורד ספרד | FOCUS | 2005 | 03/09/2026 | 13:49:49 |
| 7979178 | יונדאי קוריאה הדרומית | I25 | 2012 | 03/09/2026 | 13:49:49 |
| 57565701 | פולקסווגן גרמניה | GOLF | 2018 | 03/09/2026 | 13:49:45 |
| 42856001 | קיה קוריאה הדרומית | NIRO | 2019 | 03/09/2026 | 13:49:44 |
| 9226753 | קאדילאק מקסיקו | SRX | 2014 | 03/09/2026 | 13:49:41 |
| 9866274 | פורד ארהב" | - | 2012 | 03/09/2026 | 13:49:40 |
| 9711972 | סמארט צרפת | - | 2010 | 03/09/2026 | 13:49:35 |
| 85821001 | רנו טורקיה | MEGANE | 2019 | 03/09/2026 | 13:49:33 |
| 58978503 | מרצדס ארהב" | AMG GLE 53 4MCU | 2023 | 03/09/2026 | 13:49:31 |
| 4264173 | סיטרואן תורכיה | BERLINGO | 2010 | 03/09/2026 | 13:49:30 |
| 3140176 | דימלרקריזלר-גר | - | 2012 | 03/09/2026 | 13:49:28 |
| 61921004 | גילי סין | STARRAY EM-I | 2026 | 03/09/2026 | 13:49:27 |
| 3906781 | יונדאי קוריאה הדרומית | IONIQ HYBRID | 2017 | 03/09/2026 | 13:49:26 |
| 3764552 | קיה קוריאה הדרומית | PICANTO | 2013 | 03/09/2026 | 13:49:25 |
| 7066670 | הונדה בריטניה | CIVIC | 2010 | 03/09/2026 | 13:49:21 |
| 64176502 | סקודה צ'כיה | KODIAQ FL | 2022 | 03/09/2026 | 13:49:20 |
| 1081117 | וולבו שבדיה | - | 1995 | 03/09/2026 | 13:49:20 |
| 7066670 | הונדה בריטניה | CIVIC | 2010 | 03/09/2026 | 13:49:17 |
| 1118535 | רנו צרפת | MASTER | 2001 | 03/09/2026 | 13:49:17 |
| 2292976 | מזדה יפן | MAZDA 2 | 2013 | 03/09/2026 | 13:49:15 |
| 16731404 | סקודה צ'כיה | SUPERB | 2025 | 03/09/2026 | 13:49:13 |
| 5648965 | פורד ספרד | FOCUS | 2008 | 03/09/2026 | 13:49:10 |
| 76191102 | יונדאי קוריאה הדרומית | VENUE | 2022 | 03/09/2026 | 13:49:05 |
| 5353553 | סקודה צ'כיה | YETI | 2014 | 03/09/2026 | 13:49:04 |
| 9912711 | קיה קוריאה הדרומית | SORENTO | 2014 | 03/09/2026 | 13:49:01 |
| 85334902 | תודיי סנשיין | - | 2022 | 03/09/2026 | 13:49:00 |
| 8718554 | מזדה יפן | MAZDA 3 | 2015 | 03/09/2026 | 13:49:00 |
| 47976902 | קואנג יאנג טיו | - | 2022 | 03/09/2026 | 13:48:55 |
| 61337501 | מזדה יפן | CX-5 | 2020 | 03/09/2026 | 13:48:50 |
| 60698802 | ג'יפ ארהב" | GRAND CHEROKEE | 2021 | 03/09/2026 | 13:48:50 |
| 3304331 | יונדאי טורקיה | I10 | 2014 | 03/09/2026 | 13:48:49 |
| 4548854 | סיאט ספרד | LEON | 2015 | 03/09/2026 | 13:48:49 |
| 90114701 | ב מ וו גרמניה | - | 2017 | 03/09/2026 | 13:48:45 |
| 3888468 | רנו טורקיה | CLIO 3 | 2008 | 03/09/2026 | 13:48:44 |
| 8643454 | מזדה יפן | MAZDA 6 | 2015 | 03/09/2026 | 13:48:44 |
| 7638768 | מזדה יפן | MAZDA 2 | 2010 | 03/09/2026 | 13:48:44 |
| 1693088 | יגואר אנגליה | - | 1988 | 03/09/2026 | 13:48:43 |
| 9254973 | ב מ וו גרמניה | - | 2011 | 03/09/2026 | 13:48:43 |
| 1413563 | טויוטה יפן | LAND CRUISER | 2008 | 03/09/2026 | 13:48:43 |
| 6868639 | יונדאי טורקיה | I20 | 2016 | 03/09/2026 | 13:48:42 |
| 4300339 | סיטרואן ספרד | BERLINGO | 2016 | 03/09/2026 | 13:48:41 |
| 25648302 | קיה סלובקיה | XCEED | 2020 | 03/09/2026 | 13:48:40 |
| 3625838 | סקודה צ'כיה | OCTAVIA | 2016 | 03/09/2026 | 13:48:40 |
| 61413301 | ב מ וו גרמניה | 530E IPERFORMAN | 2020 | 03/09/2026 | 13:48:40 |
| 8734860 | פורד ארהב" | EXPLORER | 2006 | 03/09/2026 | 13:48:40 |
| 61738102 | טסלה סין | MODEL 3 | 2021 | 03/09/2026 | 13:48:39 |
| 5683280 | פיגו איטליה | - | 2016 | 03/09/2026 | 13:48:38 |
| 1010150 | טויוטה יפן | LAND CRUISER | 2004 | 03/09/2026 | 13:48:37 |
| 6124613 | סקניה-שוודיה | - | 2014 | 03/09/2026 | 13:48:36 |
| 2863069 | מזדה יפן | MAZDA 3 | 2009 | 03/09/2026 | 13:48:35 |
| 9522532 | שברולט ארהב" | MALIBU LT | 2015 | 03/09/2026 | 13:48:32 |
| 24979603 | יונדאי קוריאה הדרומית | ELANTRA HEV | 2023 | 03/09/2026 | 13:48:32 |
| 4191984 | רנו ספרד | MEGANE | 2017 | 03/09/2026 | 13:48:32 |
| 80303602 | שברולט ארהב" | - | 2022 | 03/09/2026 | 13:48:31 |
| 53391503 | יונדאי קוריאה הדרומית | GENESIS GV80 | 2024 | 03/09/2026 | 13:48:30 |
| 1304350 | טויוטה יפן | PRADO | 2003 | 03/09/2026 | 13:48:27 |
| 4275634 | מיצובישי תאילנד | ATTRAGE | 2015 | 03/09/2026 | 13:48:27 |
| 3840870 | קרייזלר מקסיקו | P.T CRUISER | 2009 | 03/09/2026 | 13:48:25 |
| 22116501 | רובר בריטניה | R.ROVER VELAR | 2018 | 03/09/2026 | 13:48:25 |
| 2113330 | ב מ וו גרמניה | 435I | 2016 | 03/09/2026 | 13:48:24 |
| 59231503 | רנו טורקיה | MEGANE | 2024 | 03/09/2026 | 13:48:23 |
| 11475004 | ניסאן בריטניה | JUKE HYBRID | 2024 | 03/09/2026 | 13:48:23 |
| 19407904 | צ'רי סין | ARRIZO 8 PHEV | 2025 | 03/09/2026 | 13:48:20 |
| 4680537 | יונדאי צ'כיה | TUCSON | 2016 | 03/09/2026 | 13:48:20 |
| 7567601 | מרצדס גרמניה | C180K | 2005 | 03/09/2026 | 13:48:20 |
| 1657965 | הונדה יפן | CIVIC | 2008 | 03/09/2026 | 13:48:20 |
| 2912811 | יונדאי קוריאה הדרומית | IX35 | 2013 | 03/09/2026 | 13:48:19 |
| 5683280 | פיגו איטליה | - | 2016 | 03/09/2026 | 13:48:17 |